Location: Bletchingley
(51.2333°N, 0.1000°W)
Time: 13:12:58
(UTC+00:00)

Spot 2 Rocket - Pass Details

Date: 18 September 2020
Orbit: 758 x 771 km, 98.6° (Epoch: 25 October)

Event Time Altitude Azimuth Distance (km) Brightness Sun altitude
Exits shadow 21:28:19 57° 265° (W) 898 3.9 -28.9°
Drops below altitude 10° 21:33:11 10° 338° (NNW) 2,300 6.8 -29.5°
Sets 21:35:32 0° 343° (NNW) 3,231 7.7 -29.7°
